Location: Windsor
(43.2292°N, 89.3015°W)
Time: 22:36:10
(UTC+00:00)

MOZHAYETS 4 - Pass Details

Date: 09 July 2022
Orbit: 660 x 678 km, 98.2° (Epoch: 16 August)

Event Time Altitude Azimuth Distance (km) Brightness Sun altitude
Exits shadow 08:39:51 21° 188° (S) 1,501 9.0 -15.1°
Maximum altitude 08:42:46 54° 259° (W) 814 7.9 -14.8°
Drops below altitude 10° 08:47:17 10° 338° (NNW) 2,104 10.7 -14.3°
Sets 08:49:34 0° 343° (NNW) 3,019 11.6 -14.0°
